QPF
0.00 0.00 0.00 0.00 0.00 0.00 0.00 0.01 0.01 0.00 0.00 0.00 0.00 0.00 0.00 0.00 0.00 0.00 0.00 0.00 0.00 0.00 0.00 0.00 0.01 0.01 0.01 0.01 0.02 0.02 0.01 0.00 0.00 0.00 0.00 0.00 0.00 0.00 0.00 0.00 0.00 0.00 0.00 0.01
0.00 0.00 0.00 0.00 0.00 0.00 0.00 0.00 0.00 0.00 0.00 0.00 0.00 0.00 0.00 0.00 0.00 0.00 0.00 0.00 0.00 0.00 0.00 0.00 0.01 0.01 0.02 0.02 0.02 0.02 0.03 0.01 0.00 0.00 0.00 0.00 0.00 0.00 0.00 0.00 0.00 0.00 0.00 0.00
0.00 0.00 0.01 0.00 0.00 0.00 0.00 0.00 0.00 0.00 0.00 0.00 0.00 0.00 0.00 0.00 0.00 0.00 0.00 0.00 0.00 0.00 0.00 0.00 0.01 0.01 0.02 0.03 0.02 0.02 0.02 0.01 0.01 0.00 0.00 0.00 0.00 0.00 0.00 0.00 0.00 0.00 0.00 0.00
0.01 0.01 0.01 0.01 0.00 0.00 0.00 0.00 0.00 0.00 0.00 0.00 0.00 0.00 0.00 0.00 0.00 0.00 0.00 0.00 0.00 0.00 0.00 0.00 0.01 0.01 0.02 0.02 0.02 0.01 0.02 0.02 0.01 0.01 0.00 0.00 0.00 0.00 0.00 0.00 0.00 0.00 0.00 0.00
0.02 0.01 0.01 0.00 0.00 0.00 0.00 0.00 0.00 0.00 0.00 0.00 0.00 0.00 0.00 0.00 0.00 0.00 0.00 0.00 0.00 0.00 0.00 0.00 0.00 0.01 0.01 0.02 0.02 0.01 0.02 0.03 0.03 0.02 0.01 0.01 0.00 0.00 0.00 0.00 0.00 0.00 0.00 0.00
0.03 0.01 0.01 0.00 0.00 0.00 0.00 0.00 0.00 0.00 0.00 0.00 0.00 0.01 0.00 0.00 0.00 0.00 0.00 0.00 0.00 0.00 0.00 0.00 0.00 0.00 0.01 0.01 0.01 0.01 0.02 0.03 0.03 0.03 0.03 0.03 0.02 0.01 0.00 0.00 0.00 0.00 0.00 0.00
0.02 0.01 0.00 0.00 0.00 0.00 0.01 0.01 0.00 0.00 0.00 0.00 0.01 0.00 0.00 0.00 0.00 0.00 0.00 0.00 0.00 0.00 0.00 0.00 0.00 0.00 0.00 0.01 0.01 0.01 0.02 0.02 0.02 0.02 0.02 0.02 0.02 0.01 0.01 0.00 0.00 0.00 0.00 0.00
0.02 0.02 0.01 0.00 0.00 0.01 0.01 0.01 0.00 0.00 0.00 0.01 0.01 0.00 0.00 0.00 0.00 0.00 0.00 0.00 0.00 0.00 0.00 0.00 0.00 0.00 0.00 0.00 0.00 0.01 0.01 0.02 0.02 0.02 0.02 0.01 0.01 0.01 0.01 0.01 0.01 0.00 0.00 0.00
0.02 0.01 0.00 0.00 0.00 0.01 0.01 0.00 0.00 0.00 0.00 0.01 0.01 0.00 0.00 0.00 0.00 0.00 0.00 0.00 0.00 0.00 0.00 0.00 0.00 0.00 0.00 0.00 0.00 0.00 0.01 0.01 0.01 0.02 0.02 0.01 0.01 0.02 0.02 0.02 0.02 0.01 0.01 0.01
0.02 0.01 0.01 0.01 0.01 0.01 0.00 0.00 0.00 0.00 0.00 0.00 0.00 0.00 0.00 0.00 0.00 0.00 0.00 0.00 0.00 0.00 0.00 0.00 0.00 0.00 0.00 0.00 0.00 0.00 0.00 0.01 0.01 0.01 0.01 0.02 0.02 0.02 0.02 0.03 0.03 0.03 0.02 0.01
0.02 0.01 0.01 0.01 0.01 0.01 0.01 0.00 0.00 0.00 0.00 0.00 0.01 0.01 0.01 0.01 0.01 0.01 0.01 0.00 0.00 0.00 0.00 0.00 0.00 0.00 0.00 0.00 0.00 0.00 0.00 0.00 0.00 0.00 0.01 0.01 0.01 0.02 0.03 0.04 0.05 0.06 0.05 0.04
0.02 0.02 0.02 0.01 0.01 0.01 0.01 0.00 0.00 0.01 0.01 0.01 0.01 0.01 0.01 0.01 0.00 0.01 0.01 0.01 0.01 0.00 0.00 0.00 0.00 0.00 0.00 0.00 0.00 0.00 0.00 0.00 0.00 0.00 0.00 0.01 0.01 0.01 0.02 0.02 0.03 0.04 0.04 0.04
0.02 0.01 0.01 0.01 0.01 0.01 0.01 0.00 0.01 0.01 0.01 0.01 0.01 0.01 0.01 0.01 0.00 0.01 0.01 0.01 0.00 0.00 0.00 0.01 0.01 0.00 0.00 0.00 0.01 0.01 0.01 0.01 0.01 0.00 0.00 0.01 0.01 0.01 0.01 0.01 0.01 0.01 0.02 0.02
0.01 0.01 0.01 0.01 0.01 0.01 0.01 0.01 0.01 0.00 0.00 0.00 0.01 0.01 0.01 0.00 0.00 0.00 0.00 0.01 0.00 0.00 0.00 0.01 0.01 0.00 0.01 0.01 0.01 0.01 0.01 0.01 0.01 0.00 0.01 0.01 0.01 0.01 0.01 0.01 0.00 0.00 0.01 0.01
0.01 0.00 0.00 0.01 0.01 0.01 0.01 0.01 0.00 0.00 0.00 0.00 0.01 0.01 0.01 0.01 0.00 0.00 0.00 0.00 0.00 0.00 0.00 0.00 0.00 0.01 0.01 0.01 0.01 0.01 0.01 0.01 0.01 0.01 0.01 0.01 0.01 0.01 0.01 0.01 0.00 0.00 0.00 0.01
0.01 0.00 0.00 0.00 0.01 0.01 0.00 0.00 0.00 0.00 0.00 0.00 0.00 0.00 0.00 0.00 0.00 0.00 0.00 0.00 0.00 0.00 0.00 0.00 0.01 0.01 0.01 0.01 0.01 0.01 0.01 0.01 0.01 0.01 0.01 0.01 0.01 0.01 0.01 0.01 0.01 0.01 0.01 0.01
0.01 0.01 0.01 0.01 0.01 0.01 0.00 0.00 0.00 0.00 0.00 0.00 0.00 0.00 0.00 0.00 0.00 0.00 0.00 0.00 0.00 0.01 0.01 0.01 0.01 0.01 0.01 0.01 0.01 0.01 0.01 0.01 0.01 0.01 0.01 0.01 0.01 0.01 0.01 0.01 0.01 0.01 0.01 0.01
0.01 0.01 0.01 0.01 0.01 0.01 0.00 0.00 0.00 0.00 0.00 0.00 0.00 0.00 0.00 0.00 0.00 0.00 0.00 0.00 0.01 0.01 0.01 0.01 0.01 0.01 0.01 0.01 0.01 0.01 0.01 0.01 0.01 0.01 0.01 0.01 0.01 0.01 0.01 0.01 0.01 0.01 0.01 0.00
0.01 0.01 0.01 0.01 0.01 0.00 0.00 0.00 0.00 0.00 0.00 0.00 0.00 0.00 0.00 0.00 0.01 0.01 0.01 0.01 0.01 0.01 0.01 0.01 0.01 0.01 0.01 0.00 0.01 0.01 0.01 0.01 0.01 0.01 0.01 0.01 0.01 0.01 0.01 0.01 0.01 0.01 0.01 0.01
0.01 0.01 0.01 0.00 0.00 0.00 0.00 0.00 0.00 0.00 0.00 0.00 0.01 0.01 0.01 0.01 0.01 0.01 0.01 0.01 0.01 0.01 0.01 0.01 0.01 0.01 0.00 0.00 0.01 0.01 0.01 0.01 0.01 0.01 0.01 0.01 0.01 0.01 0.01 0.01 0.01 0.01 0.01 0.01
0.00 0.00 0.00 0.00 0.00 0.00 0.00 0.00 0.00 0.00 0.00 0.01 0.01 0.01 0.01 0.01 0.01 0.01 0.01 0.01 0.01 0.01 0.01 0.01 0.01 0.01 0.01 0.01 0.01 0.01 0.01 0.01 0.01 0.01 0.01 0.01 0.01 0.01 0.01 0.01 0.01 0.02 0.01 0.01
0.00 0.00 0.00 0.00 0.00 0.00 0.00 0.00 0.00 0.00 0.00 0.00 0.01 0.01 0.01 0.01 0.01 0.01 0.01 0.01 0.01 0.01 0.01 0.01 0.01 0.01 0.01 0.01 0.01 0.01 0.00 0.00 0.00 0.00 0.01 0.01 0.01 0.01 0.01 0.01 0.01 0.02 0.02 0.02
0.00 0.00 0.00 0.00 0.00 0.00 0.00 0.00 0.01 0.00 0.01 0.01 0.01 0.01 0.01 0.01 0.01 0.01 0.01 0.01 0.01 0.01 0.01 0.01 0.01 0.01 0.01 0.01 0.01 0.00 0.00 0.00 0.00 0.01 0.01 0.01 0.01 0.01 0.01 0.01 0.01 0.01 0.01 0.02
0.00 0.00 0.00 0.00 0.00 0.00 0.01 0.01 0.01 0.01 0.01 0.01 0.01 0.01 0.01 0.01 0.01 0.01 0.01 0.01 0.01 0.01 0.01 0.01 0.01 0.01 0.01 0.01 0.00 0.00 0.00 0.00 0.00 0.01 0.01 0.01 0.01 0.01 0.01 0.01 0.01 0.01 0.01 0.01
0.00 0.00 0.01 0.01 0.01 0.01 0.01 0.01 0.01 0.01 0.01 0.01 0.01 0.01 0.01 0.01 0.01 0.01 0.01 0.01 0.00 0.00 0.00 0.00 0.00 0.00 0.00 0.00 0.00 0.00 0.00 0.00 0.01 0.01 0.01 0.01 0.01 0.01 0.01 0.01 0.01 0.01 0.01 0.01
0.01 0.01 0.01 0.01 0.01 0.01 0.01 0.01 0.01 0.01 0.01 0.01 0.01 0.01 0.01 0.01 0.01 0.01 0.01 0.00 0.00 0.00 0.00 0.00 0.00 0.00 0.00 0.00 0.00 0.00 0.00 0.00 0.00 0.01 0.01 0.01 0.01 0.01 0.01 0.01 0.01 0.01 0.01 0.01
0.01 0.01 0.01 0.01 0.01 0.01 0.01 0.01 0.01 0.01 0.01 0.01 0.01 0.01 0.01 0.01 0.01 0.00 0.00 0.00 0.00 0.00 0.00 0.00 0.00 0.00 0.00 0.00 0.00 0.00 0.00 0.00 0.00 0.00 0.01 0.01 0.01 0.01 0.01 0.01 0.01 0.01 0.01 0.02
MSLP
1026.09 1025.60 1025.03 1024.42 1023.85 1023.40 1023.13 1023.14 1023.46 1024.12 1025.11 1026.38 1027.86 1029.43 1030.98 1032.39 1033.57 1034.45 1035.02 1035.26 1035.23 1035.00 1034.63 1034.19 1033.75 1033.32 1032.93 1032.56 1032.20 1031.81 1031.39 1030.92 1030.41 1029.89 1029.38 1028.91 1028.51 1028.18 1027.92 1027.71 1027.52 1027.32 1027.07 1026.76
1025.89 1025.33 1024.72 1024.14 1023.64 1023.30 1023.19 1023.37 1023.87 1024.69 1025.81 1027.17 1028.68 1030.23 1031.72 1033.03 1034.10 1034.88 1035.34 1035.50 1035.41 1035.15 1034.77 1034.34 1033.91 1033.50 1033.12 1032.75 1032.38 1031.97 1031.52 1031.03 1030.49 1029.95 1029.42 1028.93 1028.52 1028.19 1027.92 1027.71 1027.51 1027.30 1027.04 1026.71
1025.71 1025.14 1024.57 1024.06 1023.68 1023.50 1023.57 1023.92 1024.58 1025.53 1026.73 1028.11 1029.59 1031.06 1032.42 1033.60 1034.52 1035.15 1035.49 1035.56 1035.43 1035.14 1034.77 1034.37 1033.98 1033.60 1033.25 1032.90 1032.54 1032.13 1031.67 1031.16 1030.61 1030.05 1029.50 1029.00 1028.57 1028.22 1027.93 1027.69 1027.46 1027.22 1026.93 1026.58
1025.59 1025.09 1024.63 1024.27 1024.07 1024.08 1024.34 1024.86 1025.65 1026.68 1027.90 1029.24 1030.62 1031.94 1033.13 1034.11 1034.84 1035.31 1035.52 1035.51 1035.33 1035.03 1034.68 1034.31 1033.96 1033.64 1033.32 1033.01 1032.66 1032.26 1031.81 1031.30 1030.74 1030.17 1029.61 1029.10 1028.65 1028.26 1027.93 1027.64 1027.37 1027.08 1026.75 1026.36
1025.53 1025.18 1024.92 1024.77 1024.80 1025.03 1025.48 1026.16 1027.05 1028.11 1029.29 1030.53 1031.75 1032.87 1033.83 1034.59 1035.12 1035.41 1035.49 1035.40 1035.17 1034.87 1034.54 1034.21 1033.91 1033.62 1033.35 1033.06 1032.73 1032.35 1031.91 1031.40 1030.85 1030.28 1029.72 1029.19 1028.71 1028.29 1027.92 1027.57 1027.24 1026.89 1026.51 1026.09
1025.51 1025.39 1025.38 1025.51 1025.80 1026.27 1026.91 1027.72 1028.67 1029.71 1030.80 1031.89 1032.90 1033.79 1034.51 1035.04 1035.36 1035.48 1035.44 1035.26 1035.00 1034.70 1034.39 1034.10 1033.83 1033.58 1033.34 1033.07 1032.75 1032.38 1031.94 1031.45 1030.91 1030.34 1029.78 1029.24 1028.75 1028.30 1027.88 1027.48 1027.09 1026.69 1026.25 1025.79
1025.52 1025.69 1025.97 1026.40 1026.96 1027.66 1028.47 1029.38 1030.35 1031.33 1032.30 1033.20 1033.99 1034.63 1035.11 1035.41 1035.54 1035.52 1035.38 1035.15 1034.86 1034.57 1034.28 1034.01 1033.77 1033.54 1033.30 1033.03 1032.72 1032.35 1031.91 1031.42 1030.89 1030.34 1029.78 1029.25 1028.74 1028.27 1027.82 1027.38 1026.93 1026.48 1026.00 1025.49
1025.58 1026.04 1026.63 1027.35 1028.16 1029.05 1030.00 1030.96 1031.91 1032.81 1033.63 1034.33 1034.90 1035.32 1035.58 1035.69 1035.67 1035.54 1035.32 1035.06 1034.77 1034.49 1034.22 1033.97 1033.73 1033.50 1033.25 1032.97 1032.64 1032.25 1031.80 1031.31 1030.79 1030.25 1029.71 1029.19 1028.68 1028.20 1027.72 1027.25 1026.77 1026.27 1025.76 1025.22
1025.72 1026.46 1027.32 1028.28 1029.29 1030.33 1031.35 1032.33 1033.22 1034.01 1034.67 1035.19 1035.56 1035.79 1035.88 1035.85 1035.72 1035.52 1035.28 1035.00 1034.73 1034.46 1034.21 1033.97 1033.72 1033.47 1033.19 1032.88 1032.51 1032.09 1031.63 1031.13 1030.61 1030.08 1029.56 1029.05 1028.55 1028.07 1027.59 1027.10 1026.60 1026.08 1025.54 1024.99
1026.00 1026.97 1028.04 1029.16 1030.30 1031.42 1032.46 1033.40 1034.21 1034.88 1035.39 1035.75 1035.96 1036.04 1036.02 1035.90 1035.72 1035.50 1035.25 1034.99 1034.74 1034.49 1034.24 1034.00 1033.73 1033.44 1033.12 1032.75 1032.34 1031.89 1031.40 1030.89 1030.36 1029.84 1029.34 1028.84 1028.36 1027.89 1027.41 1026.93 1026.42 1025.90 1025.35 1024.80
1026.48 1027.60 1028.79 1030.00 1031.18 1032.30 1033.30 1034.16 1034.87 1035.42 1035.80 1036.04 1036.14 1036.13 1036.04 1035.88 1035.69 1035.47 1035.24 1035.01 1034.78 1034.54 1034.30 1034.03 1033.73 1033.40 1033.02 1032.60 1032.13 1031.64 1031.12 1030.59 1030.06 1029.55 1029.05 1028.57 1028.11 1027.65 1027.19 1026.71 1026.22 1025.71 1025.18 1024.64
1027.21 1028.39 1029.60 1030.81 1031.96 1033.01 1033.92 1034.68 1035.28 1035.72 1036.00 1036.15 1036.18 1036.13 1036.02 1035.86 1035.68 1035.48 1035.28 1035.07 1034.84 1034.60 1034.34 1034.03 1033.69 1033.30 1032.87 1032.39 1031.87 1031.34 1030.79 1030.24 1029.71 1029.20 1028.71 1028.25 1027.80 1027.35 1026.91 1026.46 1025.99 1025.50 1025.01 1024.51
1028.17 1029.32 1030.49 1031.62 1032.68 1033.61 1034.41 1035.06 1035.55 1035.90 1036.11 1036.20 1036.21 1036.14 1036.03 1035.89 1035.72 1035.54 1035.35 1035.13 1034.90 1034.63 1034.32 1033.97 1033.57 1033.13 1032.64 1032.11 1031.56 1030.99 1030.43 1029.87 1029.34 1028.83 1028.34 1027.89 1027.44 1027.02 1026.59 1026.16 1025.72 1025.28 1024.83 1024.38
1029.30 1030.38 1031.44 1032.44 1033.36 1034.17 1034.84 1035.38 1035.78 1036.06 1036.23 1036.30 1036.30 1036.24 1036.14 1036.00 1035.84 1035.65 1035.44 1035.19 1034.91 1034.59 1034.22 1033.81 1033.35 1032.85 1032.32 1031.76 1031.18 1030.61 1030.04 1029.48 1028.95 1028.44 1027.97 1027.51 1027.08 1026.65 1026.24 1025.84 1025.43 1025.03 1024.64 1024.25
1030.52 1031.48 1032.41 1033.27 1034.04 1034.71 1035.27 1035.71 1036.05 1036.28 1036.43 1036.49 1036.50 1036.44 1036.34 1036.19 1036.01 1035.78 1035.51 1035.20 1034.84 1034.44 1034.00 1033.52 1033.00 1032.46 1031.90 1031.33 1030.76 1030.19 1029.63 1029.09 1028.57 1028.07 1027.60 1027.14 1026.71 1026.29 1025.89 1025.50 1025.13 1024.77 1024.43 1024.12
1031.72 1032.56 1033.34 1034.06 1034.69 1035.24 1035.71 1036.08 1036.37 1036.58 1036.72 1036.79 1036.79 1036.73 1036.61 1036.43 1036.19 1035.89 1035.53 1035.13 1034.67 1034.18 1033.65 1033.11 1032.54 1031.97 1031.40 1030.84 1030.29 1029.75 1029.22 1028.71 1028.21 1027.73 1027.26 1026.81 1026.37 1025.95 1025.56 1025.18 1024.84 1024.52 1024.23 1023.98
1032.82 1033.54 1034.20 1034.79 1035.31 1035.77 1036.16 1036.48 1036.74 1036.94 1037.07 1037.13 1037.12 1037.04 1036.87 1036.63 1036.31 1035.92 1035.46 1034.94 1034.38 1033.80 1033.19 1032.59 1032.00 1031.42 1030.86 1030.33 1029.81 1029.32 1028.83 1028.36 1027.89 1027.43 1026.97 1026.52 1026.08 1025.66 1025.26 1024.90 1024.57 1024.29 1024.05 1023.85
1033.79 1034.40 1034.96 1035.44 1035.88 1036.27 1036.60 1036.88 1037.12 1037.30 1037.42 1037.46 1037.42 1037.29 1037.06 1036.74 1036.32 1035.82 1035.25 1034.63 1033.97 1033.31 1032.65 1032.01 1031.40 1030.84 1030.31 1029.82 1029.36 1028.92 1028.49 1028.06 1027.62 1027.18 1026.73 1026.28 1025.84 1025.41 1025.02 1024.66 1024.35 1024.09 1023.89 1023.74
1034.62 1035.16 1035.62 1036.03 1036.40 1036.72 1037.01 1037.26 1037.46 1037.61 1037.69 1037.70 1037.60 1037.40 1037.10 1036.69 1036.18 1035.58 1034.91 1034.20 1033.47 1032.75 1032.06 1031.41 1030.82 1030.28 1029.80 1029.37 1028.97 1028.58 1028.20 1027.81 1027.41 1026.98 1026.55 1026.10 1025.66 1025.23 1024.84 1024.49 1024.19 1023.95 1023.77 1023.65
1035.37 1035.84 1036.24 1036.58 1036.88 1037.15 1037.38 1037.58 1037.73 1037.83 1037.85 1037.79 1037.63 1037.35 1036.96 1036.47 1035.87 1035.19 1034.46 1033.69 1032.93 1032.19 1031.49 1030.86 1030.30 1029.80 1029.37 1028.99 1028.64 1028.31 1027.97 1027.61 1027.24 1026.83 1026.40 1025.96 1025.53 1025.11 1024.72 1024.37 1024.08 1023.86 1023.69 1023.59
1036.10 1036.50 1036.83 1037.11 1037.35 1037.54 1037.71 1037.83 1037.91 1037.93 1037.88 1037.73 1037.48 1037.12 1036.66 1036.09 1035.43 1034.70 1033.93 1033.15 1032.38 1031.65 1030.98 1030.39 1029.87 1029.42 1029.04 1028.70 1028.39 1028.09 1027.78 1027.45 1027.09 1026.70 1026.28 1025.85 1025.43 1025.02 1024.64 1024.31 1024.03 1023.81 1023.65 1023.54
1036.83 1037.18 1037.44 1037.65 1037.80 1037.92 1037.99 1038.02 1038.00 1037.92 1037.76 1037.52 1037.18 1036.74 1036.21 1035.59 1034.89 1034.15 1033.38 1032.61 1031.87 1031.18 1030.55 1030.00 1029.53 1029.13 1028.78 1028.48 1028.19 1027.91 1027.61 1027.29 1026.94 1026.56 1026.15 1025.74 1025.33 1024.94 1024.58 1024.27 1024.00 1023.79 1023.63 1023.52
1037.59 1037.86 1038.05 1038.17 1038.23 1038.25 1038.21 1038.13 1037.99 1037.80 1037.53 1037.19 1036.76 1036.25 1035.67 1035.01 1034.31 1033.58 1032.83 1032.11 1031.42 1030.78 1030.21 1029.71 1029.28 1028.90 1028.58 1028.28 1028.00 1027.72 1027.42 1027.10 1026.75 1026.38 1025.99 1025.60 1025.22 1024.85 1024.52 1024.23 1023.98 1023.77 1023.60 1023.47
1038.33 1038.52 1038.63 1038.65 1038.61 1038.51 1038.36 1038.16 1037.90 1037.58 1037.21 1036.77 1036.27 1035.70 1035.08 1034.42 1033.73 1033.03 1032.33 1031.66 1031.03 1030.45 1029.93 1029.47 1029.07 1028.71 1028.39 1028.09 1027.80 1027.50 1027.19 1026.86 1026.51 1026.15 1025.78 1025.41 1025.05 1024.72 1024.42 1024.15 1023.91 1023.70 1023.52 1023.37
1039.00 1039.11 1039.12 1039.04 1038.90 1038.68 1038.41 1038.09 1037.72 1037.29 1036.82 1036.30 1035.74 1035.14 1034.50 1033.85 1033.19 1032.53 1031.88 1031.27 1030.70 1030.17 1029.69 1029.26 1028.87 1028.51 1028.18 1027.86 1027.54 1027.22 1026.89 1026.55 1026.20 1025.84 1025.49 1025.14 1024.82 1024.51 1024.23 1023.98 1023.75 1023.54 1023.34 1023.15
1039.53 1039.55 1039.47 1039.30 1039.05 1038.73 1038.36 1037.93 1037.45 1036.94 1036.40 1035.82 1035.22 1034.60 1033.97 1033.33 1032.70 1032.09 1031.50 1030.94 1030.41 1029.92 1029.47 1029.05 1028.66 1028.29 1027.93 1027.58 1027.24 1026.89 1026.53 1026.18 1025.82 1025.47 1025.12 1024.80 1024.49 1024.20 1023.93 1023.68 1023.44 1023.21 1022.98 1022.75
1039.90 1039.83 1039.66 1039.40 1039.07 1038.66 1038.20 1037.69 1037.14 1036.57 1035.97 1035.36 1034.74 1034.12 1033.51 1032.90 1032.30 1031.73 1031.18 1030.66 1030.16 1029.70 1029.25 1028.83 1028.43 1028.03 1027.65 1027.27 1026.89 1026.51 1026.13 1025.76 1025.39 1025.03 1024.69 1024.36 1024.05 1023.75 1023.47 1023.20 1022.93 1022.66 1022.39 1022.11
Thickness
5458 5453 5450 5448 5442 5433 5431 5442 5444 5453 5444 5441 5427 5415 5405 5396 5388 5381 5374 5367 5361 5356 5350 5344 5337 5332 5328 5324 5319 5315 5312 5310 5308 5306 5303 5302 5301 5300 5299 5299 5299 5300 5301 5303
5441 5437 5431 5429 5434 5430 5426 5426 5428 5429 5428 5420 5408 5398 5390 5383 5376 5369 5363 5357 5351 5345 5339 5332 5326 5321 5317 5313 5308 5304 5301 5300 5297 5295 5293 5291 5290 5289 5289 5289 5289 5290 5291 5293
5443 5423 5418 5435 5437 5427 5421 5417 5416 5418 5420 5404 5395 5387 5380 5373 5365 5358 5351 5346 5340 5334 5327 5321 5314 5309 5305 5301 5297 5294 5291 5290 5287 5284 5282 5281 5280 5279 5279 5280 5280 5281 5282 5283
5422 5416 5426 5447 5420 5418 5412 5408 5401 5400 5396 5389 5382 5373 5366 5360 5353 5346 5339 5334 5328 5321 5315 5309 5303 5298 5294 5289 5286 5283 5281 5279 5277 5274 5273 5271 5270 5270 5270 5271 5271 5272 5273 5274
5409 5419 5433 5429 5409 5399 5397 5402 5391 5385 5380 5372 5363 5359 5358 5348 5340 5333 5327 5321 5315 5309 5303 5298 5293 5288 5283 5279 5276 5273 5271 5268 5266 5265 5263 5262 5262 5262 5261 5261 5262 5262 5264 5265
5395 5406 5424 5429 5398 5385 5386 5397 5385 5374 5368 5360 5353 5362 5359 5337 5327 5321 5314 5308 5303 5298 5292 5288 5283 5277 5272 5269 5266 5264 5261 5259 5256 5255 5254 5253 5253 5252 5252 5252 5253 5253 5254 5255
5389 5397 5414 5397 5376 5374 5390 5397 5370 5361 5355 5348 5346 5345 5334 5322 5315 5309 5303 5297 5291 5286 5281 5277 5272 5267 5264 5260 5257 5254 5251 5249 5247 5246 5245 5245 5244 5244 5243 5243 5243 5244 5246 5247
5379 5385 5400 5371 5364 5373 5376 5358 5353 5348 5342 5335 5328 5322 5316 5309 5303 5298 5292 5286 5280 5276 5271 5266 5261 5257 5255 5251 5248 5244 5241 5240 5238 5237 5236 5235 5235 5234 5234 5234 5235 5236 5238 5240
5379 5386 5369 5355 5355 5350 5344 5342 5339 5334 5327 5321 5315 5310 5304 5298 5292 5287 5281 5275 5270 5265 5260 5256 5252 5248 5245 5242 5238 5235 5232 5231 5229 5228 5227 5226 5225 5226 5226 5226 5227 5228 5230 5232
5356 5359 5350 5343 5338 5333 5330 5327 5324 5319 5314 5309 5304 5298 5293 5287 5282 5276 5270 5265 5260 5255 5251 5247 5242 5238 5235 5232 5229 5226 5224 5222 5221 5220 5219 5218 5217 5216 5217 5218 5219 5221 5222 5225
5345 5343 5336 5334 5329 5324 5318 5314 5310 5306 5301 5297 5292 5287 5281 5276 5271 5265 5260 5254 5249 5245 5241 5237 5233 5230 5226 5223 5220 5218 5216 5215 5213 5212 5211 5210 5209 5208 5208 5209 5210 5213 5215 5217
5350 5337 5330 5329 5320 5313 5308 5304 5300 5295 5291 5286 5281 5276 5271 5265 5260 5255 5249 5245 5240 5236 5232 5228 5224 5221 5218 5215 5212 5210 5209 5208 5206 5205 5203 5202 5201 5201 5201 5202 5204 5205 5206 5208
5322 5316 5313 5310 5305 5301 5297 5293 5289 5285 5281 5275 5270 5265 5260 5255 5250 5245 5240 5236 5231 5227 5223 5219 5216 5213 5211 5208 5205 5203 5201 5200 5199 5198 5196 5195 5194 5194 5196 5197 5197 5198 5200 5201
5304 5301 5299 5297 5293 5288 5284 5280 5276 5273 5268 5264 5259 5254 5250 5245 5240 5236 5232 5227 5223 5219 5216 5212 5209 5207 5204 5200 5198 5196 5194 5193 5192 5191 5189 5188 5187 5187 5188 5189 5191 5193 5194 5195
5292 5290 5288 5283 5278 5274 5271 5267 5264 5261 5257 5253 5248 5244 5239 5235 5231 5227 5223 5218 5215 5211 5209 5206 5203 5200 5197 5194 5191 5189 5187 5186 5185 5184 5183 5182 5181 5181 5181 5181 5183 5185 5187 5189
5279 5275 5272 5269 5266 5262 5259 5256 5253 5250 5246 5243 5239 5235 5230 5226 5222 5219 5215 5211 5208 5205 5202 5199 5196 5194 5190 5187 5185 5183 5181 5180 5178 5178 5178 5177 5176 5175 5175 5175 5176 5178 5180 5182
5267 5265 5261 5258 5256 5252 5249 5246 5243 5240 5237 5233 5230 5227 5222 5218 5215 5211 5208 5204 5201 5198 5195 5192 5190 5186 5184 5181 5179 5177 5175 5174 5172 5171 5171 5170 5169 5169 5169 5169 5169 5171 5172 5173
5259 5256 5252 5249 5246 5242 5239 5236 5233 5231 5228 5225 5221 5217 5214 5211 5208 5205 5201 5197 5194 5192 5189 5186 5183 5180 5178 5175 5172 5171 5169 5167 5166 5164 5164 5163 5163 5163 5163 5163 5163 5164 5166 5167
5247 5244 5241 5238 5234 5232 5229 5226 5223 5220 5218 5215 5212 5209 5206 5203 5200 5197 5193 5190 5188 5187 5184 5180 5177 5175 5172 5169 5167 5165 5164 5162 5160 5158 5157 5156 5156 5155 5156 5156 5157 5158 5159 5161
5238 5235 5232 5228 5225 5222 5219 5217 5214 5211 5208 5206 5203 5200 5198 5195 5192 5189 5187 5185 5184 5181 5177 5174 5172 5169 5166 5164 5162 5160 5158 5156 5154 5152 5151 5150 5150 5150 5150 5150 5151 5152 5154 5155
5228 5225 5222 5219 5216 5213 5211 5208 5205 5203 5201 5198 5196 5194 5191 5189 5185 5183 5181 5181 5179 5175 5172 5170 5167 5164 5161 5159 5157 5155 5153 5150 5149 5147 5146 5145 5145 5145 5145 5145 5146 5147 5148 5149
5218 5216 5213 5210 5207 5205 5203 5201 5199 5197 5194 5192 5189 5186 5184 5182 5180 5178 5175 5174 5172 5169 5167 5164 5161 5159 5157 5155 5153 5150 5147 5145 5144 5142 5141 5141 5140 5140 5140 5140 5141 5142 5143 5144
5210 5207 5205 5202 5199 5197 5195 5193 5192 5190 5188 5185 5183 5181 5179 5177 5175 5173 5171 5169 5165 5163 5161 5158 5156 5154 5152 5150 5147 5144 5142 5140 5139 5138 5137 5136 5136 5136 5136 5136 5136 5137 5138 5139
5202 5199 5196 5193 5191 5190 5189 5188 5185 5183 5181 5179 5177 5174 5172 5171 5169 5166 5164 5161 5159 5156 5155 5153 5150 5149 5147 5144 5141 5139 5138 5136 5135 5134 5133 5133 5132 5132 5132 5132 5132 5133 5134 5134
5194 5191 5188 5186 5185 5184 5182 5180 5178 5176 5175 5173 5171 5168 5166 5164 5162 5160 5157 5154 5152 5150 5148 5146 5144 5143 5140 5138 5136 5135 5133 5132 5131 5131 5130 5129 5129 5128 5129 5129 5129 5129 5130 5131
5186 5184 5182 5180 5178 5176 5174 5173 5171 5170 5168 5166 5164 5162 5160 5157 5155 5152 5150 5148 5146 5144 5142 5140 5138 5136 5135 5133 5132 5131 5129 5129 5128 5127 5126 5125 5125 5125 5125 5126 5126 5127 5127 5128
5178 5176 5175 5173 5171 5169 5167 5165 5164 5162 5161 5159 5157 5156 5153 5151 5149 5147 5144 5142 5140 5138 5136 5135 5133 5132 5130 5129 5127 5126 5126 5125 5124 5123 5123 5123 5122 5122 5123 5122 5123 5124 5124 5125